Location: Monteux
(44.0348°N, 4.9972°E)
Time: 16:47:04
(UTC+00:00)

Meteor 1-11 Rocket - Pass Details

Date: 30 November 2020
Orbit: 832 x 915 km, 81.2° (Epoch: 17 January)

Event Time Altitude Azimuth Distance (km) Brightness Sun altitude
Rises 17:38:55 0° 357° (N) 3,471 6.8 -16.7°
Reaches altitude 10° 17:41:37 10° 7° (N) 2,542 6.0 -17.2°
Maximum altitude 17:46:47 33° 71° (ENE) 1,467 4.4 -18.1°
Enters shadow 17:48:46 26° 106° (ESE) 1,676 4.8 -18.4°
Exits shadow 17:54:11 - 142° (SE) 3,320 6.5 -19.4°
Sets 17:54:44 0° 144° (SE) 3,520 6.7 -19.5°
